Theta_e
314 313 313 313 313 313 313 313 313 313 313 314 314 315 315 314 313 315 316 317 317 317 317 317 316 316 317 320 319 320 322 325 324 322 323 318 318 316 315 317 315 315 315 315 313
311 311 311 311 311 311 311 311 311 312 312 312 313 314 315 315 315 315 317 317 316 316 317 318 318 317 320 320 319 321 324 324 322 321 320 319 318 319 315 316 316 315 314 313 311
310 310 311 311 311 310 310 310 310 311 311 311 312 312 314 315 316 318 316 317 315 315 317 318 318 318 320 320 321 321 323 321 321 318 317 318 318 317 317 318 319 318 317 313 310
312 312 312 313 313 313 313 313 311 310 310 310 310 311 313 315 320 317 316 317 315 314 315 317 317 319 321 322 320 321 321 319 319 317 316 317 317 317 316 318 317 317 317 315 312
312 312 313 313 313 314 314 313 313 312 311 310 309 310 312 316 317 317 315 316 315 313 313 316 319 321 321 321 319 320 320 318 317 316 316 317 316 317 318 318 317 315 314 313 312
312 312 312 312 312 313 313 313 313 313 312 310 309 309 312 316 315 315 316 315 314 313 313 314 318 318 318 318 320 319 318 318 318 317 317 316 317 315 318 317 317 316 313 312 312
312 312 312 312 312 312 312 312 312 313 312 311 310 309 313 314 314 314 316 315 314 313 313 313 314 317 319 320 317 316 318 319 319 317 317 315 317 318 317 315 315 315 314 313 312
313 313 313 313 313 313 313 313 313 312 312 311 310 311 315 314 313 313 315 315 314 313 312 312 313 316 316 315 316 317 318 319 320 317 316 315 318 318 318 316 314 315 315 313 312
311 313 314 314 314 314 314 313 313 312 311 310 310 312 315 314 313 314 315 314 313 312 312 312 313 317 315 318 319 320 321 321 321 317 317 316 318 318 317 315 315 315 315 315 313
306 306 308 312 314 314 314 313 312 311 310 310 312 315 314 314 314 315 315 314 311 311 312 313 315 318 318 319 319 319 319 320 320 319 316 317 317 317 316 316 316 315 315 315 315
309 307 306 306 307 309 310 310 312 313 309 316 317 316 313 313 314 314 315 314 311 313 316 316 317 318 319 319 319 319 318 318 318 319 317 317 317 317 317 316 316 316 315 315 315
311 310 309 307 306 306 306 306 307 308 310 310 309 311 312 314 314 314 314 313 313 316 316 316 316 317 317 317 318 318 318 318 319 319 314 316 317 317 317 317 316 315 315 315 315
313 312 310 310 308 307 306 305 305 306 311 311 310 310 311 311 313 314 313 313 315 316 316 317 317 315 316 317 317 317 317 318 319 319 314 314 316 317 316 314 314 313 313 313 314
318 317 314 310 311 309 308 306 307 309 311 313 311 312 310 311 311 311 312 312 314 315 315 316 316 316 315 315 316 317 317 318 318 318 319 314 318 318 317 316 315 313 313 314 312
320 318 320 317 309 311 308 309 310 307 315 312 309 309 311 311 310 308 309 309 313 314 314 315 316 314 315 316 316 317 312 315 316 317 318 317 318 317 312 314 313 314 314 315 314
321 319 317 317 314 310 308 310 310 312 314 311 311 311 313 311 310 307 308 308 309 312 312 314 310 313 315 310 312 310 312 312 312 314 318 317 318 317 317 314 314 315 314 314 312
323 321 318 317 315 311 308 310 311 311 311 314 313 312 313 314 313 309 309 309 313 314 315 316 314 312 310 313 310 311 315 318 322 321 321 318 316 317 317 314 314 314 314 314 311
323 323 320 318 317 314 309 312 312 312 315 311 312 313 314 314 314 312 313 313 311 314 315 316 317 314 310 314 318 313 316 320 324 320 320 313 316 316 316 315 313 313 312 311 310
323 323 319 318 317 316 309 312 316 315 314 314 314 312 313 313 313 314 314 315 315 313 315 315 316 309 310 310 314 314 313 315 320 319 319 316 317 318 315 313 313 311 310 310 308
321 319 321 319 318 313 309 313 319 315 313 312 314 314 314 314 313 313 314 315 314 314 313 315 315 314 305 306 307 310 311 315 315 322 319 317 318 318 315 314 313 312 311 311 310
319 318 318 318 315 310 310 311 317 316 313 310 311 312 314 314 314 314 313 315 314 314 313 314 315 314 307 309 313 309 311 310 311 317 318 318 317 314 315 314 314 314 312 312 312
318 316 315 316 310 308 309 312 313 315 311 309 309 310 312 313 313 313 314 314 313 312 312 312 314 315 314 313 309 311 313 313 314 315 314 315 316 314 313 313 312 312 311 311 312
315 315 313 314 315 310 310 313 313 315 315 309 310 310 310 310 310 311 312 313 312 312 312 311 313 316 314 311 306 309 311 312 313 313 315 317 316 314 314 314 314 311 311 311 310
314 314 307 308 311 314 310 313 314 313 313 313 310 310 311 311 311 312 312 312 308 309 308 310 315 314 315 315 313 312 311 311 311 313 314 314 314 314 314 313 313 313 313 312 311
309 314 310 309 309 311 312 312 314 314 313 312 312 312 311 314 314 313 312 312 310 308 310 310 312 312 313 313 314 312 313 312 311 311 312 312 313 313 313 313 313 313 312 311 311
305 311 307 309 312 309 310 313 313 314 314 315 314 314 313 313 314 317 315 314 313 310 309 310 312 311 313 312 312 312 312 312 312 312 313 313 312 312 312 312 312 312 311 311 310
301 301 299 303 308 310 311 311 312 313 313 314 315 315 314 312 312 313 313 313 314 311 309 308 311 312 314 313 313 314 313 313 312 313 314 314 314 314 314 313 313 313 313 312 311
Wind_Speed
7 7 7 7 8 8 8 9 9 8 9 8 6 6 5 4 5 6 7 7 5 4 3 3 4 5 5 4 4 2 5 7 5 5 2 3 8 5 5 10 7 10 10 9 10
8 8 8 9 10 10 10 10 9 9 9 8 8 7 8 9 10 14 11 9 6 4 4 3 4 6 5 4 3 5 6 6 1 4 5 5 10 9 5 13 18 16 15 18 15
9 9 10 10 10 11 11 11 11 11 10 10 9 8 7 9 10 11 15 13 9 5 4 5 5 8 8 6 7 4 6 4 6 7 7 9 10 11 11 14 18 19 18 22 20
12 12 12 12 12 13 13 13 13 12 12 12 11 9 7 6 5 6 12 15 11 8 5 4 5 5 6 6 6 5 12 9 2 4 5 10 7 9 21 24 6 7 11 20 22
15 15 15 14 14 14 14 14 15 15 15 14 13 11 8 7 13 16 12 15 13 10 7 5 8 7 8 4 5 9 10 8 10 8 11 11 16 13 21 21 20 16 18 18 22
18 17 17 17 17 17 16 16 17 17 17 17 15 13 8 12 13 14 15 17 15 11 9 7 5 5 8 7 7 4 10 14 11 15 12 9 16 5 13 12 21 22 21 20 24
21 20 20 19 19 19 18 18 19 18 18 18 17 13 12 18 16 14 15 17 17 14 11 11 9 4 2 7 5 6 9 13 17 14 7 7 10 18 24 14 14 18 21 22 25
25 24 23 23 22 22 21 20 20 20 19 18 16 10 10 16 16 17 16 16 15 14 14 12 10 6 4 2 5 6 6 11 2 11 6 8 18 12 10 13 17 20 23 23 26
27 28 27 27 26 26 24 22 22 23 20 18 12 8 9 13 14 17 15 12 13 12 11 9 6 6 4 7 11 10 11 15 16 16 4 13 15 8 6 11 23 24 27 28 28
24 26 28 29 28 28 27 25 25 24 19 13 13 6 16 10 11 10 15 14 9 8 4 6 6 8 8 10 12 17 17 15 15 9 13 15 21 21 28 27 30 33 33 32 32
23 24 24 25 26 26 27 23 11 8 7 9 4 8 6 9 9 9 12 13 8 7 7 7 8 17 18 18 22 22 21 23 24 8 9 19 23 22 28 30 30 34 35 31 29
23 24 24 23 23 22 21 11 12 9 12 16 23 27 27 21 8 15 14 12 10 14 15 6 16 22 18 10 15 20 20 25 21 7 5 16 22 21 22 29 35 33 33 24 19
23 23 24 24 20 18 15 16 13 12 8 12 21 18 21 24 15 17 20 11 13 16 18 22 22 2 5 14 15 18 21 22 21 13 13 14 19 17 14 19 26 35 29 21 19
22 24 24 24 13 12 11 10 9 4 7 11 8 8 13 11 7 19 19 12 8 13 18 19 22 20 16 20 18 19 12 18 19 11 14 1 17 15 15 18 13 28 31 22 18
20 22 23 22 12 7 9 4 4 1 10 5 5 5 7 9 2 6 18 8 17 12 6 12 8 9 15 15 11 8 2 5 8 12 17 16 15 14 6 9 13 18 30 19 15
23 20 22 19 14 11 8 4 4 7 12 6 7 7 5 7 2 3 5 6 2 9 13 20 2 5 6 2 2 7 2 3 4 5 12 20 18 8 7 6 8 13 19 12 10
26 24 25 22 9 8 8 7 6 12 3 8 9 8 10 9 8 10 7 10 9 6 11 13 23 5 5 6 4 9 6 6 9 6 16 13 12 19 11 13 15 21 22 9 11
29 30 32 28 21 8 13 5 16 9 23 3 1 6 9 11 9 10 8 10 16 15 6 9 11 18 15 18 10 14 10 6 11 15 24 5 13 12 13 14 20 19 13 10 14
29 38 39 37 28 18 15 11 22 17 15 15 7 10 14 10 5 10 12 17 11 21 14 10 14 5 12 4 9 9 8 3 8 1 8 16 26 19 6 10 11 8 11 18 17
25 34 43 45 36 29 8 25 23 17 12 6 26 15 23 23 11 11 15 11 14 16 18 13 16 7 7 3 5 6 2 5 5 6 16 27 24 17 10 14 9 8 13 20 14
21 11 23 24 35 18 6 16 17 26 27 10 21 26 25 22 23 23 18 16 12 10 16 11 8 8 6 12 16 7 7 7 4 10 11 17 12 6 2 5 3 7 12 13 13
18 4 13 23 13 7 9 9 12 24 14 8 9 21 25 23 27 26 28 23 9 6 10 10 3 10 23 11 7 12 19 21 10 16 9 14 27 6 4 5 3 8 13 16 15
7 7 18 36 8 10 12 24 14 17 15 5 11 5 10 15 19 21 23 22 25 9 7 7 5 7 13 10 6 8 15 16 20 13 24 17 26 9 22 17 17 13 15 18 21
9 4 7 23 17 13 18 19 21 25 22 20 8 12 13 15 19 12 14 10 11 9 14 4 5 13 20 22 6 13 18 18 20 16 23 25 28 33 28 23 29 34 32 28 27
9 9 13 6 13 17 10 8 23 17 21 14 7 22 17 10 15 12 23 26 18 8 11 4 10 19 23 28 30 25 20 13 21 23 20 27 23 24 31 35 32 40 37 32 37
9 6 7 12 26 25 27 22 27 24 23 19 22 25 25 22 20 22 20 14 19 3 12 9 7 14 20 25 28 32 29 27 32 27 30 30 30 34 37 52 39 45 49 33 44
12 14 11 5 4 11 19 27 29 28 33 36 31 24 23 27 41 46 40 28 12 10 12 8 7 8 17 23 26 21 33 36 36 38 30 29 38 36 36 36 35 38 42 34 42
Wind_Direction
326 337 344 349 353 358 2 4 7 11 8 1 340 279 261 271 269 251 240 228 226 252 282 262 281 230 207 228 220 239 254 266 280 263 1 161 214 207 236 232 212 223 243 228 206
314 319 324 330 335 339 343 346 348 348 348 346 337 320 278 265 272 263 239 224 226 232 241 216 224 197 224 232 225 241 262 295 329 276 268 216 233 236 223 222 233 238 234 240 216
306 313 318 322 326 331 334 335 334 335 335 333 328 317 300 278 289 255 235 224 225 227 233 221 213 195 234 229 204 200 252 351 267 252 260 258 243 223 230 249 240 240 235 238 216
296 301 306 310 315 320 324 326 326 324 324 324 321 310 298 270 265 282 222 217 225 229 231 227 200 218 245 224 209 258 246 249 266 236 245 244 264 236 231 240 248 247 247 220 226
289 293 297 301 305 309 312 314 314 316 316 315 315 309 291 256 253 266 235 224 229 235 240 238 239 261 255 244 231 246 275 247 245 233 241 255 248 254 260 255 253 249 246 218 231
286 289 292 295 299 301 305 308 308 309 310 311 313 306 273 254 257 258 239 232 233 236 249 246 268 258 289 259 233 338 273 265 260 251 246 233 258 248 261 250 243 239 239 232 229
283 286 289 291 295 296 300 305 305 306 305 304 305 299 266 258 264 255 239 235 237 240 245 247 250 239 260 258 258 277 282 272 249 245 243 208 251 234 255 243 231 235 238 233 232
281 284 287 289 293 295 299 302 301 301 299 297 294 281 261 265 258 250 238 235 238 240 240 247 244 240 228 266 250 260 257 271 217 182 196 192 266 247 250 212 236 246 246 240 233
275 279 282 286 291 293 297 300 301 300 297 288 278 245 262 264 251 245 230 230 232 230 231 235 226 247 217 242 268 209 267 268 263 192 163 210 267 286 211 239 265 263 259 249 244
280 277 276 280 284 289 293 299 304 300 287 273 245 243 244 239 248 240 228 219 211 215 215 207 224 244 223 233 259 290 287 270 261 197 217 234 249 271 275 272 272 270 266 260 253
286 283 282 282 282 286 292 302 302 285 245 222 247 246 270 244 246 229 214 203 202 212 225 196 229 241 254 246 250 274 283 276 272 272 219 246 260 269 275 278 274 275 274 266 256
294 290 286 285 286 289 288 284 262 266 293 259 253 252 257 261 249 232 209 183 192 225 221 216 239 254 277 285 270 264 265 267 273 287 213 271 270 268 268 268 274 275 271 272 262
308 305 299 294 292 292 280 271 269 270 249 253 247 242 242 243 238 240 206 203 222 237 228 241 254 113 266 261 253 247 250 260 272 296 231 273 275 259 249 258 262 270 268 267 249
312 317 315 308 321 300 284 277 264 254 264 231 206 217 230 213 252 221 201 206 208 247 243 253 264 260 254 255 253 261 261 253 268 280 274 82 287 280 286 264 246 268 273 267 232
297 303 312 314 308 314 288 246 189 304 275 102 165 199 197 207 81 197 195 202 239 214 189 238 229 222 234 244 237 239 348 248 256 257 279 261 270 277 171 263 232 248 266 274 235
286 287 293 304 303 293 259 201 180 236 249 194 168 181 172 209 219 108 178 189 301 243 235 257 95 240 234 111 238 124 219 221 229 267 257 260 243 283 217 214 235 251 246 260 226
278 275 267 277 276 296 205 154 250 235 112 196 215 193 206 195 202 191 180 188 189 185 219 227 228 195 188 208 168 204 213 271 256 225 264 280 260 255 271 246 254 263 268 239 203
265 265 255 253 257 254 185 196 243 240 229 48 157 204 218 190 223 202 196 231 225 240 282 250 245 192 197 220 251 198 214 222 267 266 282 112 263 265 234 232 246 251 243 216 202
265 258 246 239 238 226 184 216 240 231 252 256 233 251 226 229 249 200 222 237 225 198 214 222 248 126 180 183 188 167 201 255 273 237 280 267 267 262 163 202 230 227 230 233 215
286 258 254 247 229 205 182 242 247 219 269 262 239 228 250 235 205 207 234 233 232 198 223 257 259 201 125 187 223 237 93 189 201 259 259 278 278 277 243 229 212 233 239 253 227
282 251 252 246 217 184 203 229 260 261 258 236 255 255 256 253 249 232 241 257 218 204 208 236 231 234 140 201 217 188 223 220 293 239 251 270 268 54 6 151 270 224 244 244 228
267 228 234 208 180 192 225 219 236 265 271 271 272 262 265 263 257 250 250 251 207 164 201 216 266 232 235 245 256 255 232 218 219 229 235 254 271 146 142 108 189 245 244 263 248
244 234 203 196 203 215 236 239 242 255 243 222 242 255 314 292 293 277 270 276 272 196 209 177 207 237 259 244 169 211 228 240 237 249 245 243 255 235 274 284 279 253 243 247 257
255 241 179 217 235 224 222 228 239 242 249 242 204 278 266 256 254 267 278 297 4 5 9 341 190 226 238 245 262 217 227 224 227 234 246 244 262 280 282 280 275 273 270 265 254
246 246 218 198 232 236 222 220 240 240 225 214 226 209 218 240 246 237 244 257 253 244 286 305 251 251 254 265 273 275 267 227 230 240 246 263 263 266 277 273 273 279 276 281 276
278 286 287 281 223 214 226 228 236 237 235 230 227 225 218 226 219 248 234 228 241 196 234 217 252 244 246 250 261 266 264 267 264 262 260 255 261 261 259 268 274 270 276 277 276
263 290 335 282 277 253 230 227 231 238 240 237 250 242 234 223 226 235 246 255 215 192 191 191 207 212 243 238 240 248 242 244 248 251 251 251 248 259 264 261 259 275 275 276 276